Regional Weather Roundup
Issued by NWS

Home | Current Version | Previous Version | Graphics & Text | Print | Product List | Glossary On
Versions: 1 2 3 4 5 6 7 8 9 10 11 12 13 14 15 16 17 18 19 20 21 22 23 24 25 26 27 28 29 30 31 32 33 34 35 36 37 38 39 40 41 42 43 44 45 46 47 48 49 50
000
ASUS43 KDTX 061510
RWRMI
MICHIGAN HOURLY REGIONAL WEATHER ROUNDUP
NATIONAL WEATHER SERVICE DETROIT/PONTIAC MI
1000 AM EST FRI MAR 06 2015

NOTE: "FAIR" INDICATES FEW OR NO CLOUDS BELOW 12,000 FEET WITH NO
SIGNIFICANT WEATHER AND/OR OBSTRUCTION TO VISIBILITY.

MIZ047>049-052>055-059>063-066>070-074>076-081>083-061600-
SOUTHEAST LOWER MICHIGAN

CITY           SKY/WX    TMP DP  RH WIND       PRES   REMARKS
ADRIAN         SUNNY      8   2  76 SW9       30.48F
ALMA           SUNNY     10   4  77 S10       30.38F WCI  -4
ANN ARBOR      SUNNY     12   4  70 SW12G18   30.45F WCI  -2
BAD AXE        SUNNY     13   6  74 SW10      30.38F WCI   0
DETROIT CITY   SUNNY     17   5  59 SW14      30.47F
DETROIT        PTSUNNY   14   5  67 S10       30.49F
FLINT          SUNNY     15   2  56 SW12      30.41F
GROSSE ILE     SUNNY     14   7  73 S9        30.48F
HILLSDALE      SUNNY     11  -1  59 SW9       30.41F
HOWELL         SUNNY     13   2  62 SW9G17    30.40F

CITY           SKY/WX    TMP DP  RH WIND       PRES   REMARKS
JACKSON        SUNNY     11  -1  58 SW16      30.42S WCI  -6
LAMBERTVILLE   SUNNY     18   9  68 S8        30.50S
LANSING        SUNNY     11   0  61 SW15      30.41F WCI  -5
LAPEER         NOT AVBL
MASON          SUNNY     10   4  75 SW8       30.41F
MONROE         SUNNY     12   7  79 SW6       30.48F
MT. CLEMENS    MOSUNNY   17   4  57 SW14      30.44F
PONTIAC        PTSUNNY   14   3  61 SW9       30.40F
PORT HOPE        N/A     14   4  64 SW8G17    30.37F
PORT HURON     SUNNY     14   5  67 S13       30.45F WCI   0
TRI CITIES     SUNNY     13   3  64 SW16      30.38F WCI  -3
YPSILANTI      SUNNY     14   5  67 SW13      30.47F WCI   0
$$
MIZ043>046-050>051-056>058-064>065-071>073-077>080-061600-
SOUTHWEST LOWER MICHIGAN

CITY           SKY/WX    TMP DP  RH WIND       PRES   REMARKS
BATTLE CREEK   SUNNY     10   1  67 SW14      30.41F WCI  -6
BENTON HARBOR  MOSUNNY    7   0  73 S12       30.45S WCI  -8
BIG RAPIDS     FLURRIES  16  11  82 SW13G20   30.30F
COLDWATER      SUNNY      9   0  68 SW9       30.43F
HOLLAND        MOSUNNY   12   4  70 S14       30.41F WCI  -3
GRAND RAPIDS   CLOUDY    11   3  70 SW14      30.40S WCI  -5
KALAMAZOO      MOSUNNY    9   1  70 SW13      30.43F WCI  -7
MARSHALL         N/A     10   0  65 S8G16     30.42F
MUSKEGON       LGT SNOW  16  10  77 S15       30.37F
$$
MIZ016>042-061600-
NORTHERN LOWER MICHIGAN

CITY           SKY/WX    TMP DP  RH WIND       PRES   REMARKS
ALPENA         SUNNY     16   6  65 SW17G23   30.26F
BEAVER ISLAND  SUNNY     16   8  69 SW14G21   30.18F
BELLAIRE       SUNNY     17   8  66 S9        30.26F
CADILLAC       MOSUNNY   13   8  79 SW17      30.22F WCI  -4
CHARLEVOIX     SUNNY     16   8  70 S3        30.25F
FRANKFORT      SUNNY     22  12  66 SW15G21   30.26F
GAYLORD        SUNNY     13   7  77 SW23G29   30.18F WCI  -6
GRAYLING       SUNNY     13   5  70 SW12G17   30.23F WCI  -1
HARBOR SPRINGS MOSUNNY   13   6  74 SW8       30.22F
HOUGHTON LAKE  SUNNY     12   6  77 SW14      30.26F WCI  -3
MANISTEE       SUNNY     18   9  68 S9        30.29F
OSCODA         SUNNY     12   5  73 SW17      30.32F WCI  -5
PELLSTON       SUNNY     15   6  67 SW10G23   30.21F
TRAVERSE CITY  MOSUNNY   18   8  65 SW10G18   30.24F
$$
MIZ007>008-015-061600-
EASTERN UPPER MICHIGAN

CITY           SKY/WX    TMP DP  RH WIND       PRES   REMARKS
KINROSS        MOSUNNY   12   7  79 SW9       30.15F
MACKINAC ISLAN MOSUNNY   15   7  70 SW14G23   30.18F
NEWBERRY       SUNNY     13   3  63 SW18G25   30.11F HAZE    WCI  -4
S. S. MARIE    SUNNY      7   4  87 CALM      30.16F
$$
MIZ004>006-011>014-085-061600-
CENTRAL UPPER MICHIGAN

CITY           SKY/WX    TMP DP  RH WIND       PRES   REMARKS
MANISTIQUE     SUNNY     12   4  67 SW16      30.15F WCI  -4
ESCANABA       PTSUNNY    9   0  66 S10       30.15F WCI  -6
MENOMINEE      CLOUDY     9   0  66 SW12      30.18F WCI  -6
SAWYER-GWINN   SUNNY     10  -2  56 SW18G28   30.02F WCI  -8
$$
MIZ001>003-009>011-084-061600-
WESTERN UPPER MICHIGAN

CITY           SKY/WX    TMP DP  RH WIND       PRES   REMARKS
IRON MOUNTAIN  PTSUNNY    9  -2  61 S8        30.05F
HOUGHTON       CLOUDY    17   2  51 W16       29.92F
COPPER HARBOR    N/A     14   1  56 VRB5      29.94F
IRONWOOD       CLOUDY    14   3  62 SW13      29.95S WCI   0
$$

ABBREVIATIONS USED IN REMARKS
   TC - TEMPERATURE IN CELSIUS
  WCI - WIND CHILL INDEX
   HX - HEAT INDEX
  VSB - VISIBILITY




USA.gov is the U.S. government's official web portal to all federal, state and local government web resources and services.